DMSP 5D-2 F13 DEB, 40469

Orbit data source: Space-Track

DMSP 5D-2 F13 DEB, 40469 is space debris in SSO originally from a launch on Fri, 24 Mar 1995 UTC launched from the Air Force Western Test Range (AFWTR). Debris objects in space refer to the collection of defunct objects orbiting the Earth. Examples of debris include non-operational satellites, rocket bodies, and fragments generated from explosions, collisions, or faulty payload assembly.

Loading next visibility...
Identifier
40469, 1995-015BM
Orbit
SSO
Country
Flag of USUS
Related business
Manufacturer
Unknown
Mission
Spacecraft
Bus & Motor
Unknown
Mass
Unknown
Launch date (UTC)
1995-03-24 (31 years ago)
Launch vehicle
Unknown
Launch site
Air Force Western Test Range (AFWTR)
Object type
Payload
Rocket body
Debris
Shape & HBR
Unknown shape, 0.1 m
Radar Cross Section
Small (<0.1 m²)

Expand to show TLE details & history
Last TLE update: 13 hours ago

TLE from 13 hours ago
0 DMSP 5D-2 F13 DEB
1 40469U 95015BM  25301.62869900  .00012147  00000-0  28285-2 0  9996
2 40469  98.5797 357.4455 0023225  90.9216 269.4642 14.54813795555560
Epoch: 2025-10-28T15:05Z
TLE epoch observation values (Epoch: 2025-10-28T15:05:19.593Z)
Latitude
0.00004°
Longitude
93.9004°
Altitude
713.128 km
Speed
7.499 km/s
True Right ascension
23h 49m 46s
True Declination
0° 00' 00"
Sunlit
Object was in full shadow at epoch
Visualization orbit readout
Latitude
Unknown
Longitude
Unknown
Altitude
Unknown
Speed
Unknown
Apparent Right ascension
Unknown
Apparent Declination
Unknown
Sunlit
N/A
Visualization observer readout
Local Sidereal Time
00:04:02
Azimuth
Unknown
Elevation
Unknown
Doppler factor
Unknown
Orbital elements
Apogee altitude
723.531 km
Perigee altitude
690.62 km
Semi-major axis
7,085.212 km
Eccentricity
0.00232
Inclination
98.5797°
RAAN
357.4455°
Arg. of periapsis
90.9216°
True anomaly
269.19808°
Mean anomaly
269.4642°
Eccentric anomaly
269.33114°
Mean motion
3.63927 °/min
Orbital period
98.92 mins
BSTAR
0.0028285

Documentation

Showing up to 5 results
|